This demonstration page uses our WeatherBlox Daily Observations layout. Learn more.

Left ArrowRight Arrow

39.51506, -84.39828

Hourly Observations for September 17, 2016

Temp ( °F °C ) Dew Point ( °F °C ) Humidity (%) Winds ( mph kmh ) Pressure ( in mb ) Visibility ( mi km ) Precip ( " mm )
12:15 am 00:15 Hazy 73 23 68 20 83 83 N N/A 30.00 1016 5 8 N/A
12:35 am 00:35 Partly Cloudy 72 22.3 67 19.3 83 83 N N/A 30.00 1016 10 16 N/A
12:55 am 00:55 Mostly Cloudy 74 23.6 69 20.6 83 83 SSW 3 6 30.00 1016 7 11 N/A
1:15 am 01:15 Mostly Cloudy with Haze 73 22.8 67 19.7 83 83 WSW 3 6 30.00 1016 5 8 N/A
1:35 am 01:35 Hazy 72 22.3 67 19.5 84 84 N N/A 30.00 1016 5 8 N/A
1:55 am 01:55 Hazy 71 21.6 66 19 85 85 N N/A 30.00 1016 4 6 N/A
2:15 am 02:15 Mostly Cloudy with Haze 72 22.3 67 19.6 85 85 N N/A 30.00 1016 4 6 N/A
2:35 am 02:35 Mostly Cloudy with Haze 71 21.8 66 19 84 84 N N/A 30.00 1016 4 6 N/A
2:55 am 02:55 Mostly Cloudy with Haze 71 21.4 66 18.8 85 85 N N/A 30.00 1016 3 5 N/A
3:15 am 03:15 Partly Cloudy with Mist and Fog 70 21.3 65 18.6 85 85 N N/A 30.00 1016 4 6 N/A
3:35 am 03:35 Mostly Cloudy with Drizzle 70 21.2 65 18.5 85 85 N N/A 30.00 1016 4 6 N/A
3:55 am 03:55 Mostly Cloudy with Light Rain 72 22.1 67 19.4 85 85 W 8 13 30.00 1016 5 8 N/A
4:15 am 04:15 Mostly Cloudy with Light Rain 74 23.6 69 20.5 83 83 NW 5 7 30.00 1016 7 11 N/A
4:35 am 04:35 Cloudy 74 23.6 69 20.5 83 83 N N/A 30.00 1016 7 11 N/A
4:55 am 04:55 Cloudy with Haze 74 23.4 69 20.5 84 84 E 5 7 30.00 1016 4 6 N/A
5:15 am 05:15 Cloudy with Haze 74 23.5 69 20.5 83 83 ESE 3 6 30.00 1016 4 6 N/A
5:35 am 05:35 Mostly Cloudy with Haze 74 23.2 68 20.2 83 83 N N/A 30.00 1016 5 8 N/A
5:55 am 05:55 Hazy 71 21.6 66 18.7 84 84 NW 5 7 30.00 1016 3 5 N/A
6:15 am 06:15 Hazy 71 21.6 66 18.9 85 85 N N/A 30.00 1016 3 5 N/A
6:35 am 06:35 Hazy 70 20.9 65 18.2 85 85 N N/A 30.00 1016 3 5 N/A
6:55 am 06:55 Hazy 69 20.8 65 18.1 85 85 N N/A 30.00 1016 3 4 N/A
7:15 am 07:15 Mostly Cloudy with Haze 69 20.8 65 18.1 85 85 N N/A 30.00 1016 1 2 N/A
7:35 am 07:35 Mostly Cloudy with Haze 69 20.8 65 18.1 85 85 N N/A 30.00 1016 1 1 N/A
7:55 am 07:55 Mostly Cloudy with Haze 69 20.8 65 18.2 85 85 N N/A 30.00 1016 1 1 N/A
8:15 am 08:15 Mostly Cloudy with Haze 69 20.8 65 18.2 85 85 N N/A 30.00 1016 2 2 N/A
8:35 am 08:35 Hazy 72 22.2 67 19.5 85 85 N N/A 30.00 1016 4 6 N/A
8:55 am 08:55 Sunny 74 23.6 69 20.6 83 83 SSW 3 6 30.00 1016 10 16 N/A
9:15 am 09:15 Mostly Cloudy 74 23.6 67 19.7 79 79 WSW 5 7 30.00 1016 10 16 N/A
9:35 am 09:35 Partly Cloudy 74 23.6 67 19.5 78 78 SW 5 7 30.00 1016 10 16 N/A
9:55 am 09:55 Sunny 77 25.1 69 20.6 76 76 SSW 7 11 30.00 1016 10 16 N/A
10:15 am 10:15 Sunny 77 25.1 67 19.3 70 70 SSW 9 15 30.00 1016 10 16 N/A
10:35 am 10:35 Sunny 80 26.5 67 19.4 65 65 S 10 17 30.00 1016 10 16 N/A
10:55 am 10:55 Sunny 80 26.5 65 18.4 61 61 SW 16 26 30.00 1016 10 16 N/A
11:15 am 11:15 Mostly Cloudy 80 26.5 65 18.4 61 61 SSW 22 35 30.00 1016 10 16 N/A
11:35 am 11:35 Cloudy 80 26.5 65 18.3 61 61 SSW 16 26 30.00 1016 10 16 N/A
11:55 am 11:55 Cloudy 80 26.5 65 18.4 61 61 SW 18 30 30.00 1016 10 16 N/A
12:15 pm 12:15 Cloudy with Light Rain 76 24.7 65 18.6 69 69 SW 20 31 30.03 1017 10 16 N/A
12:35 pm 12:35 Cloudy with Light Rain 74 23.6 66 18.9 75 75 SSW 12 19 30.00 1016 7 11 N/A
12:55 pm 12:55 Mostly Cloudy 74 23.6 66 18.9 75 75 SW 13 20 30.00 1016 10 16 N/A
1:15 pm 13:15 Cloudy with Rain 74 23.6 67 19.2 76 76 S 13 20 30.00 1016 10 16 N/A
1:35 pm 13:35 Cloudy with Drizzle 74 23.6 67 19.5 78 78 SSW 12 19 30.00 1016 10 16 N/A
1:55 pm 13:55 Cloudy 74 23.6 66 19 75 75 SSW 9 15 30.00 1016 10 16 N/A
2:15 pm 14:15 Partly Cloudy 77 25.1 67 19.6 72 72 SSW 13 20 30.00 1016 10 16 N/A
2:35 pm 14:35 Mostly Cloudy 77 25.1 66 19 69 69 SSW 17 28 30.00 1016 10 16 N/A
2:55 pm 14:55 Mostly Cloudy 78 25.7 66 18.9 66 66 SSW 16 26 29.97 1015 10 16 N/A
3:15 pm 15:15 Mostly Cloudy 78 25.7 65 18.6 65 65 S 17 28 29.97 1015 10 16 N/A
3:35 pm 15:35 Mostly Cloudy 77 25.1 64 18 65 65 SSW 16 26 29.97 1015 10 16 N/A
3:55 pm 15:55 Mostly Cloudy 80 26.5 66 19.1 64 64 SSW 17 28 29.97 1015 10 16 N/A
4:15 pm 16:15 Cloudy 77 25.1 65 18.3 66 66 SSW 15 24 29.97 1015 10 16 N/A
4:35 pm 16:35 Cloudy 77 25.1 66 18.8 68 68 SSW 9 15 29.97 1015 10 16 N/A
4:55 pm 16:55 Cloudy with Rain 74 23.6 66 19 75 75 SW 10 17 29.97 1015 3 5 N/A
5:15 pm 17:15 Cloudy with Light Rain 74 23.6 68 20.2 81 81 SSW 9 15 30.00 1016 4 6 N/A
5:35 pm 17:35 Cloudy with Light Rain 74 23.6 69 20.3 82 82 SSW 7 11 29.97 1015 5 8 N/A
5:55 pm 17:55 Cloudy with Light Rain 74 23.6 68 20.2 81 81 SSW 7 11 29.97 1015 10 16 N/A
6:15 pm 18:15 Cloudy with Drizzle 74 23.6 69 20.3 82 82 SSW 9 15 30.00 1016 5 8 N/A
6:35 pm 18:35 Cloudy 74 23.6 68 20.2 81 81 S 7 11 29.97 1015 10 16 N/A
6:55 pm 18:55 Cloudy 74 23.6 68 20.2 81 81 SSW 7 11 29.97 1015 10 16 N/A
7:15 pm 19:15 Cloudy 74 23.6 68 20.2 81 81 S 7 11 29.97 1015 10 16 N/A
7:35 pm 19:35 Cloudy 74 23.6 69 20.3 82 82 SSW 3 6 29.97 1015 10 16 N/A
7:55 pm 19:55 Mostly Cloudy 74 23.6 69 20.4 82 82 SSW 3 6 29.97 1015 10 16 N/A
8:15 pm 20:15 Mostly Cloudy 72 22.3 67 19.3 83 83 SW 5 7 30.00 1016 10 16 N/A
8:35 pm 20:35 Mostly Cloudy 72 22.3 67 19.5 84 84 SW 3 6 30.00 1016 7 11 N/A
8:55 pm 20:55 Cloudy 72 22.3 67 19.6 85 85 WSW 3 6 30.00 1016 7 11 N/A
9:15 pm 21:15 Cloudy 71 21.6 66 19 85 85 SSW 3 6 30.00 1016 7 11 N/A
9:35 pm 21:35 Mostly Cloudy 71 21.6 66 19 85 85 SW 3 6 30.00 1016 7 11 N/A
9:55 pm 21:55 Mostly Cloudy 72 22.3 67 19.6 85 85 N N/A 30.00 1016 7 11 N/A
10:15 pm 22:15 Hazy 69 20.8 65 18.1 85 85 SSW 3 6 30.00 1016 5 8 N/A
10:35 pm 22:35 Mostly Cloudy with Haze 69 20.8 65 18.1 85 85 N N/A 30.00 1016 4 6 N/A
10:55 pm 22:55 Cloudy with Haze 69 20.8 65 18.1 85 85 N N/A 30.00 1016 5 8 N/A
11:15 pm 23:15 Cloudy 72 22.3 67 19.6 85 85 SSW 3 6 30.00 1016 10 16 N/A
11:35 pm 23:35 Cloudy 72 22.3 67 19.6 85 85 SSW 3 6 30.00 1016 10 16 N/A
11:55 pm 23:55 Cloudy 72 22.3 67 19.5 84 84 SSW 3 6 30.00 1016 10 16 N/A

Powered by AerisWeather